Aberdeen / Amory, MS

5:08 PM CDT on May 28, 2017 (GMT -0500)
Aberdeen / Amory

Weather History for KM40 - June, 2013

Change the Weather History Date:

Friday, June 7, 2013

  Actual Average (KCBM) Record (KCBM)
Temperature  
Mean Temperature 74 °F -  
Max Temperature 82 °F 84 °F 96 °F (2007)
Min Temperature 64 °F 66 °F 51 °F (1998)
Cooling Degree Days 9    
Growing Degree Days 24 (Base 50)    
Moisture  
Dew Point 57 °F    
Average Humidity 57    
Maximum Humidity 83    
Minimum Humidity 52    
Precipitation  
Precipitation 0.09 in - - ()
Sea Level Pressure  
Sea Level Pressure 29.83 in    
Wind  
Wind Speed 0 mph (North)    
Max Wind Speed 0 mph    
Max Gust Speed -    
Visibility 4 miles    
Events Rain    
Averages and records for this station are not official NWS values.
T = Trace of Precipitation, MM = Missing Value Source: NWS Daily Summary

Daily Weather History Graph

Daily Weather History Graph

Search for Another Location

Airport or City:

Trip Planner

Search our weather history database for the weather conditions in past years. The results will help you decide how hot, cold, wet, or windy it might be!

Date:

Astronomy

Jun. 07, 2013 Rise Set
Actual Time 5:42 AM CDT 8:03 PM CDT
Civil Twilight 5:13 AM CDT 8:32 PM CDT
Nautical Twilight 4:38 AM CDT 9:07 PM CDT
Astronomical Twilight 3:59 AM CDT 9:46 PM CDT
Moon 5:02 AM CDT (6/7) 7:19 PM CDT (6/7)
Length of Visible Light 15h 18m
Length of Day
14h 20m
Waning Crescent, 1% of the Moon is Illuminated
Jun 7
Waning Crescent
Jun 8
New
Jun 16
First Quarter
Jun 23
Full
Jun 29
Last Quarter

Hourly Weather History & Observations

Time (CDT) Temp. Heat Index Dew Point Humidity Pressure Visibility Wind Dir Wind Speed Gust Speed Precip Events Conditions
12:15 AM 71.6 °F - 53.6 °F 53% 29.79 in 7.0 mi North - - N/A   Clear
12:35 AM 69.8 °F - 53.6 °F 56% 29.78 in 6.0 mi North - - N/A   Haze
12:55 AM 69.8 °F - 53.6 °F 56% 29.78 in 5.0 mi North - - N/A   Haze
1:15 AM 69.8 °F - 53.6 °F 56% 29.77 in 1.8 mi Calm Calm - N/A   Haze
1:35 AM 69.8 °F - 53.6 °F 56% 29.77 in 2.5 mi Calm Calm - N/A   Haze
1:55 AM 69.8 °F - 51.8 °F 53% 29.77 in 1.8 mi Calm Calm - N/A   Haze
2:15 AM 69.8 °F - 51.8 °F 53% 29.76 in 3.0 mi Calm Calm - N/A   Haze
2:35 AM 69.8 °F - 53.6 °F 56% 29.76 in 4.0 mi Calm Calm - N/A   Haze
2:55 AM 69.8 °F - 53.6 °F 56% 29.76 in 4.0 mi Calm Calm - N/A   Haze
3:15 AM 69.8 °F - 53.6 °F 56% 29.77 in 4.0 mi Calm Calm - N/A   Haze
3:35 AM 69.8 °F - 53.6 °F 56% 29.76 in 4.0 mi Calm Calm - N/A   Haze
3:55 AM 69.8 °F - 53.6 °F 56% 29.76 in 2.5 mi Calm Calm - N/A   Haze
4:15 AM 69.8 °F - 53.6 °F 56% 29.77 in 2.5 mi Calm Calm - N/A   Haze
4:35 AM 69.8 °F - 51.8 °F 53% 29.77 in 1.8 mi Calm Calm - N/A   Haze
4:55 AM 69.8 °F - 51.8 °F 53% 29.77 in 1.8 mi Calm Calm - N/A   Haze
5:15 AM 69.8 °F - 51.8 °F 53% 29.78 in 2.0 mi Calm Calm - N/A   Haze
5:35 AM 69.8 °F - 51.8 °F 53% 29.78 in 2.5 mi Calm Calm - N/A   Haze
5:55 AM 69.8 °F - 53.6 °F 56% 29.79 in 3.0 mi Calm Calm - N/A   Haze
6:15 AM 69.8 °F - 53.6 °F 56% 29.80 in 2.5 mi Calm Calm - N/A   Haze
6:35 AM 69.8 °F - 53.6 °F 56% 29.80 in 2.5 mi Calm Calm - N/A   Haze
6:55 AM 69.8 °F - 53.6 °F 56% 29.81 in 2.5 mi Calm Calm - N/A   Light Drizzle
7:15 AM 69.8 °F - 53.6 °F 56% 29.82 in 2.5 mi Calm Calm - N/A Rain Light Rain
7:35 AM 69.8 °F - 53.6 °F 56% 29.82 in 2.5 mi North - - N/A Rain Light Rain
7:55 AM 69.8 °F - 53.6 °F 56% 29.83 in 1.5 mi North - - 0.02 in Rain Rain
8:15 AM 69.8 °F - 53.6 °F 56% 29.84 in 1.5 mi North - - 0.01 in Rain Light Rain
8:35 AM 69.8 °F - 53.6 °F 56% 29.85 in 1.2 mi North - - 0.04 in Rain Light Rain
8:55 AM 69.8 °F - 53.6 °F 56% 29.85 in 1.5 mi North - - 0.05 in Rain Light Rain
9:15 AM 71.6 °F - 53.6 °F 53% 29.85 in 1.8 mi North - - N/A Rain Light Rain
9:35 AM 71.6 °F - 53.6 °F 53% 29.85 in 1.5 mi North - - 0.01 in Rain Light Rain
9:55 AM 71.6 °F - 53.6 °F 53% 29.86 in 1.8 mi North - - 0.02 in Rain Light Rain
10:15 AM 71.6 °F - 55.4 °F 57% 29.86 in 2.0 mi North - - N/A   Light Drizzle
10:35 AM 73.4 °F - 55.4 °F 53% 29.86 in 3.0 mi North - - N/A   Haze
10:55 AM 73.4 °F - 57.2 °F 57% 29.86 in 3.0 mi North - - N/A   Haze
12:15 PM 78.8 °F - 73.4 °F 83% 29.85 in - North - - N/A   Unknown
12:35 PM 80.6 °F 83.9 °F 69.8 °F 70% 29.84 in 5.0 mi North - - N/A   Haze
12:55 PM 80.6 °F 82.7 °F 66.2 °F 61% 29.84 in 5.0 mi North - - N/A   Haze
1:15 PM 80.6 °F 82.7 °F 66.2 °F 61% 29.84 in 5.0 mi North - - N/A   Haze
1:35 PM 82.4 °F 84.6 °F 66.2 °F 58% 29.84 in 5.0 mi North - - N/A   Haze
1:55 PM 80.6 °F 82.3 °F 64.4 °F 58% 29.84 in 7.0 mi North - - N/A   Mostly Cloudy
2:15 PM 80.6 °F 82.3 °F 64.4 °F 58% 29.84 in 7.0 mi North - - N/A   Scattered Clouds
2:35 PM 82.4 °F 83.9 °F 64.4 °F 54% 29.83 in 7.0 mi North - - N/A   Partly Cloudy
2:55 PM 82.4 °F 83.9 °F 64.4 °F 54% 29.83 in 7.0 mi North - - N/A   Partly Cloudy
3:15 PM 82.4 °F 83.9 °F 64.4 °F 54% 29.83 in 6.0 mi North - - N/A   Haze
3:35 PM 80.6 °F 82.3 °F 64.4 °F 58% 29.83 in 7.0 mi North - - N/A   Partly Cloudy
3:55 PM 80.6 °F 82.3 °F 64.4 °F 58% 29.83 in 6.0 mi North - - N/A   Haze
4:15 PM 80.6 °F 82.3 °F 64.4 °F 58% 29.83 in 6.0 mi North - - N/A   Haze
4:35 PM 82.4 °F 83.9 °F 64.4 °F 54% 29.83 in 8.0 mi North - - N/A   Partly Cloudy
4:55 PM 80.6 °F 82.3 °F 64.4 °F 58% 29.83 in 8.0 mi North - - N/A   Partly Cloudy
5:15 PM 80.6 °F 81.8 °F 62.6 °F 54% 29.83 in 7.0 mi North - - N/A   Clear
5:35 PM 80.6 °F 81.8 °F 62.6 °F 54% 29.83 in 8.0 mi North - - N/A   Clear
5:55 PM 80.6 °F 81.8 °F 62.6 °F 54% 29.84 in 9.0 mi North - - N/A   Partly Cloudy
6:15 PM 78.8 °F - 62.6 °F 57% 29.84 in 7.0 mi North - - N/A   Clear
6:35 PM 78.8 °F - 62.6 °F 57% 29.85 in 7.0 mi North - - N/A   Clear
6:55 PM 78.8 °F - 62.6 °F 57% 29.85 in 7.0 mi North - - N/A   Clear
7:15 PM 77.0 °F - 62.6 °F 61% 29.85 in 8.0 mi Calm Calm - N/A   Clear
7:35 PM 75.2 °F - 62.6 °F 65% 29.85 in 7.0 mi Calm Calm - N/A   Clear
7:55 PM 73.4 °F - 60.8 °F 65% 29.86 in 6.0 mi Calm Calm - N/A   Haze
8:15 PM 71.6 °F - 59.0 °F 64% 29.87 in 5.0 mi Calm Calm - N/A   Haze
8:35 PM 71.6 °F - 57.2 °F 60% 29.88 in 5.0 mi Calm Calm - N/A   Haze
8:55 PM 71.6 °F - 57.2 °F 60% 29.88 in 5.0 mi Calm Calm - N/A   Haze
9:15 PM 71.6 °F - 57.2 °F 60% 29.89 in 5.0 mi Calm Calm - N/A   Haze
9:35 PM 71.6 °F - 55.4 °F 57% 29.90 in 5.0 mi Calm Calm - N/A   Haze
9:55 PM 69.8 °F - 53.6 °F 56% 29.90 in 5.0 mi Calm Calm - N/A   Haze
10:15 PM 69.8 °F - 53.6 °F 56% 29.91 in 5.0 mi Calm Calm - N/A   Haze
10:35 PM 68.0 °F - 51.8 °F 56% 29.91 in 2.5 mi Calm Calm - N/A   Haze
10:55 PM 66.2 °F - 50.0 °F 56% 29.90 in 0.8 mi Calm Calm - N/A   Haze
11:15 PM 66.2 °F - 50.0 °F 56% 29.90 in 1.2 mi Calm Calm - N/A   Haze
11:35 PM 66.2 °F - 48.2 °F 52% 29.90 in 0.2 mi Calm Calm - N/A   Haze
11:55 PM 64.4 °F - 48.2 °F 56% 29.90 in 0.2 mi Calm Calm - N/A   Haze